Regional Weather Roundup
Issued by NWS

Home | Current Version | Previous Version | Text Only | Print | Product List | Glossary On
Versions: 1 2 3 4 5 6 7 8 9 10 11 12 13 14 15 16 17 18 19 20 21 22 23 24 25 26 27 28 29 30 31 32 33 34 35 36 37 38 39 40 41 42 43 44 45 46 47 48 49 50
000
ASUS42 KTBW 290910
RWRFL
FLORIDA REGIONAL WEATHER ROUNDUP
NATIONAL WEATHER SERVICE TAMPA BAY RUSKIN FL
500 AM EDT TUE JUL 29 2014

NOTE: "FAIR" INDICATES FEW OR NO CLOUDS BELOW 12,000 FEET WITH NO
SIGNIFICANT WEATHER AND/OR OBSTRUCTIONS TO VISIBILITY.


FLZ001>010-012>015-112-114-115-291000-
PANHANDLE FLORIDA

CITY           SKY/WX    TMP DP  RH WIND       PRES   REMARKS
PENSACOLA      CLEAR     73  70  90 N7        29.95S
PENSACOLA NAS  CLEAR     75  72  90 N6        29.94F
MILTON NAS     CLEAR     73  67  81 N5        29.96S
CRESTVIEW      CLOUDY    74  70  87 N5        29.97R
DUKE FIELD     MOCLDY    73  71  93 N6        29.95S
VALPARAISO     MOCLDY    75  70  85 N6        29.94S
MARY ESTHER    PTCLDY    75  67  77 N8        29.93F
TRI COUNTY     PTSUNNY   74  72  93 NW3       29.94F
PANAMA CITY    FAIR      75  71  87 NW6       29.92F
TYNDALL AFB    CLEAR     79  73  80 N9        29.93F
APALACHICOLA   PTCLDY    78  78 100 N6        29.90F

STATION/POSITION SKY/WX   TEMP    WIND        PRES    WAVE   SWELL
                          AIR SEA DIR/SP/G            HT/PER HT/PER
                          (F)     (DEG/KT/KT) (MB)    (FT/S) (FT/S)
30.1N   87.6W              81 84   20/ 17/ 19 1013.7F   2/ 5
29.2N   88.2W              82 86  320/ 10/ 12 1014.1
28.8N   86.0W              84 85  260/ 17/ 21 1012.9F   4/ 5
PANAMA CITY BEAC           77 78  350/  6/ 10 1013.3F
CAPE SAN BLAS    NOT AVBL
TOWER C                    83     270/ 12/ 13 1012.7F
28.5N   84.5W              85 86  270/ 17/ 19 1013.5F   5/ 6

$$
FLZ011-016>038-118-127-128-134-139-239-291000-
NORTH FLORIDA

CITY           SKY/WX    TMP DP  RH WIND       PRES   REMARKS
MARIANNA       CLOUDY    74  74 100 CALM      29.92F
TALLAHASSEE      N/A    N/A N/A N/A MISG        N/A
PERRY          CLEAR     73  72  94 W6        29.92F
CROSS CITY       N/A     78  73  84 CALM      29.91F
GAINESVILLE    CLEAR     78  76  93 W6        29.91F
MAYPORT NAS    PTCLDY    83  74  74 W7        29.88S
JACKSONVILLE   CLOUDY    79  75  87 W9        29.88S
JAX NAS        PTCLDY    83  77  82 W8        29.90S
JAX CRAIG      PTCLDY    82  73  74 W12       29.88S
JAX CECIL      CLEAR     77  77 100 W5        29.90S
FERNANDINA BEA FAIR      81  75  83 W6        29.87S
ST AUGUSTINE   MOCLDY    80  77  90 W9        29.90S

STATION/POSITION SKY/WX   TEMP    WIND        PRES    WAVE   SWELL
                          AIR SEA DIR/SP/G            HT/PER HT/PER
                          (F)     (DEG/KT/KT) (MB)    (FT/S) (FT/S)
SHELL POINT                79     280/  6/ 11   N/A
KEATON BEACH               83     290/ 13/ 15 1012.8F
CEDAR KEY                  85     280/ 10/ 15 1013.7F
FERNANDINA                 81 86  270/  8/ 10 1011.4R
30.7N   81.3W                 85                N/A     2/ 3
MAYPORT                    82 86  280/ 11/ 14   N/A
31.4N   80.9W              82 85  320/ 14/ 16 1010.9R   3/ 4
ST AUGUSTINE               80     260/  9/ 11 1012.8F

$$
FLZ040-043>046-052-053-057-058-063-144-291000-
INTERIOR CENTRAL FLORIDA

CITY           SKY/WX    TMP DP  RH WIND       PRES   REMARKS
OCALA          PTCLDY    79  70  73 CALM      29.93S
LEESBURG       PTCLDY    81  77  88 SW7       29.93F
SANFORD        CLEAR     81  77  88 W8        29.92S
ORLANDO EXEC   CLEAR     81  76  84 W9        29.93S
ORLANDO INTL   PTCLDY    80  75  84 SW7       29.94S
WINTER HAVEN   PTCLDY    79  75  87 SW7       29.96S
LAKELAND         N/A     77  77 100 CALM      29.95F
BARTOW         FAIR      79  79 100 SW6       29.96S
OKEECHOBEE       N/A     75  73  94 MISG        N/A

$$
FLZ041-047-054-059-064-141-147-291000-
EAST CENTRAL FLORIDA

CITY           SKY/WX    TMP DP  RH WIND       PRES   REMARKS
DAYTONA BEACH  PTCLDY    79  76  90 SW6       29.91F
DELAND         SUNNY     77  75  94 MISG      29.93S
JFK SPACE CTR  CLEAR     80  80 100 W12       29.92F
CAPE CANAVERAL CLEAR     81  76  85 W10       29.92S
PATRICK AFB    CLEAR     80  77  89 W10       29.93F
MELBOURNE      CLEAR     79  75  87 SW8       29.94S
VERO BEACH     PTCLDY    76  76 100 SW6       29.96R
FT PIERCE      CLEAR     78  73  84 W5        29.96S
STUART         CLEAR     77  75  94 SW5       29.97S

STATION/POSITION SKY/WX   TEMP    WIND        PRES    WAVE   SWELL
                          AIR SEA DIR/SP/G            HT/PER HT/PER
                          (F)     (DEG/KT/KT) (MB)    (FT/S) (FT/S)
28.5N   80.2W              83 84  240/ 16/ 17 1013.6S
28.9N   78.5W              84 84  250/ 14/ 17 1012.8R   4/ 5   2/ 8
TRIDENT PIER               81 86  230/ 11/ 13 1012.9S
28.4N   80.5W                 83                N/A     1/ 3
27.6N   80.2W                 82                N/A     1/ 9

$$
FLZ050-056-061-142-242-148-248-149-249-151-251-155-255-
160-260-291000-
WEST CENTRAL FLORIDA

CITY           SKY/WX    TMP DP  RH WIND       PRES   REMARKS
CRYSTAL RIVER  PTSUNNY   82  75  78 W9G17     29.92F
INVERNESS      FAIR      81  72  74 SW3       29.93F
BROOKSVILLE    PTCLDY    83  75  77 W8        29.94F
ZEPHYRHILLS    FAIR      77  77 100 SW3       29.95F
CLEARWATER     PTCLDY    84  75  74 W12       29.95F
TAMPA INTL     PTCLDY    84  75  74 W10       29.94F
TAMPA EXEC     PTCLDY    81  77  89 CALM      29.95F
PLANT CITY     PTCLDY    81 N/A N/A SW5       29.97S
MACDILL AFB    PTCLDY    83  78  87 W7        29.95F
ST PETERSBURG  PTCLDY    86  76  71 W8        29.93F HX  96
SARASOTA       MOCLDY    86  74  67 W15G22    29.94F
VENICE         PTSUNNY   84  75  74 W14G21    29.97F

STATION/POSITION SKY/WX   TEMP    WIND        PRES    WAVE   SWELL
                          AIR SEA DIR/SP/G            HT/PER HT/PER
                          (F)     (DEG/KT/KT) (MB)    (FT/S) (FT/S)
CEDAR KEY                  85     280/ 10/ 15 1013.7F
28.5N   84.5W              85 86  270/ 17/ 19 1013.5F   5/ 6
27.3N   84.3W                 87                N/A     4/ 6
CLEARWATER BEACH           76 88  260/ 21/ 32 1013.7S
MIDDLE TAMPA BAY           86     290/ 17/ 20 1014.4F
VENICE                     86 89  270/ 17/ 19 1014.1F

$$
FLZ066-069-070-075>078-162-262-165-265-291000-
SOUTHWEST FLORIDA AND KEYS

CITY           SKY/WX    TMP DP  RH WIND       PRES   REMARKS
PUNTA GORDA    CLEAR     83  75  77 W8        29.98S
FT MYERS       PTCLDY    82  76  81 W8        29.96F
SOUTHWEST INTL CLEAR     80  74  81 W6        29.97F
NAPLES         PTCLDY    85  78  80 SW7       29.97F HX  96
MARATHON       PTCLDY    84  77  79 S5        29.99F
KEY WEST NAS   CLEAR     83  75  77 SW6       29.99F
KEY WEST INTL  PTCLDY    86  74  67 SW5       30.00F

STATION/POSITION SKY/WX   TEMP    WIND        PRES    WAVE   SWELL
                          AIR SEA DIR/SP/G            HT/PER HT/PER
                          (F)     (DEG/KT/KT) (MB)    (FT/S) (FT/S)
VENICE                     86 89  270/ 17/ 19 1014.1F
NAPLES                     85 92   CALM  /  1 1015.5F
DRY TORTUGAS               84     190/  4/  6 1016.0F
NW FL BAY                  86     250/  6/  7 1016.2F
SAND KEY                   85     220/  5/  6 1015.8F
SOMBRERO KEY               84     190/  7/  8 1016.4F
LONG KEY                   85 91  210/  9/ 10 1016.6F
MOLASSES REEF              84 87  230/ 11/ 12 1015.3F

$$
FLZ067-068-071>074-168-172>174-291000-
SOUTHEAST FLORIDA

CITY           SKY/WX    TMP DP  RH WIND       PRES   REMARKS
W PALM BEACH   PTCLDY    80  75  84 W6        29.97R
FT LAUDER-EXEC CLEAR     80  78  94 SW6       29.98S
FT LAUDERDALE  PTCLDY    82  76  81 CALM      29.98S
POMPANO BEACH  CLEAR    N/A N/A N/A MISG      29.98S
PEMBROKE PINES PTCLDY    80  77  90 SW5       29.99F
OPA LOCKA      CLEAR     81  75  82 W3        29.99S
MIAMI          MOCLDY    81  73  76 SW5       29.99S
WEST KENDALL   PTCLDY    80  74  81 SW5       29.98F
HOMESTEAD      PTCLDY    77  74  90 S3        29.99S

STATION/POSITION SKY/WX   TEMP    WIND        PRES    WAVE   SWELL
                          AIR SEA DIR/SP/G            HT/PER HT/PER
                          (F)     (DEG/KT/KT) (MB)    (FT/S) (FT/S)
PORT EVERGLADES            81     190/  3/  4 1015.1
VIRGINIA KEY               83 89  270/  9/ 11   N/A
LAKE WORTH                 81 83              1014.6S
FOWEY ROCKS                84 86  240/ 12/ 13 1015.7F
SETTLEMENT POINT           84     260/ 18/ 20 1014.8F

$$



USA.gov is the U.S. government's official web portal to all federal, state and local government web resources and services.